Location: Unspecified
(22.6800°N, 112.2000°E)
Time: 16:03:27
(UTC+08:00)

Transit 2A - Visible Passes

Search period start: 24 July 2021 00:00
Search period end: 03 August 2021 00:00
Orbit: 598 x 960 km, 66.7° (Epoch: 23 July)

Date Brightness Start Highest point End Pass type
(mag) Time Alt. Az. Time Alt. Az. Time Alt. Az.
24 Jul 9.3 19:59:44 10° W 20:00:35 10° WSW 20:01:28 10° WSW visible
31 Jul 8.1 05:20:00 10° SSE 05:23:03 19° ESE 05:26:08 10° ENE visible
01 Aug 8.6 04:48:11 10° ESE 04:49:01 10° ESE 04:49:52 10° E visible
